Flag for Germany Weather past 2 weeks in Lemgo, North Rhine-Westphalia, Germany

Now
53 °F

Overcast.


Feels Like: 53 °F
Forecast: 45 / 58 °F
Wind: 2 mph from Northwest

Location: Bad Lippspringe

Current Time: Sep 22, 2014 at 12:28:56 AM

Latest Report: Sep 22, 2014 at 12:00 AM


Visibility: 3 mi

Pressure: 30.05 "Hg

Humidity: 91%

Dew point: 50 °F

Location of LemgoLocation

Historic Weather in Lemgo — Graph

°F

Lemgo temperature yesterday

Maximum temperature yesterday: 62 °F (at 5:00 PM)
Minimum temperature yesterday: 52 °F (at 10:00 PM)
Average temperature yesterday: 59 °F

Past Weeks' High & Low Weather Summary

 TemperatureHumidityPressure
High75 °F (Sep 17, 3:00 PM)99% (Sep 8, 4:00 AM)30.23 "Hg (Sep 8, 4:00 AM)
Low44 °F (Sep 12, 5:00 AM)55% (Sep 14, 3:00 PM)29.85 "Hg (Sep 19, 6:00 AM)
Average61 °F83%30.03 "Hg
* Reported Sep 6 11:00 PM — Sep 21 11:00 PM, Lemgo, Weather by CustomWeather, © 2014

Note: Actual official high and low records may vary slightly from our data, if they occured in-between our weather recording intervals... More about our weather records

Advertising

Lemgo weather history for previous 24 hours

 ConditionsComfort  
Time TempWeatherWind HumidityBarometerVisibility
11:00 PM
Sep 21
53 °FFog.2 mph91%30.05 "Hg2 mi
10:00 PM52 °FFog.2 mph92%30.05 "Hg4 mi
9:00 PM54 °FFog.3 mph87%30.03 "Hg4 mi
8:00 PM56 °FPassing clouds.3 mph80%30.02 "Hg6 mi
7:00 PM60 °FOvercast.5 mph67%29.99 "Hg19 mi
6:00 PM62 °FPassing clouds.5 mph63%29.97 "Hg25 mi
5:00 PM62 °FScattered clouds.6 mph63%29.97 "Hg16 mi
4:00 PM62 °FOvercast.3 mph75%29.97 "Hg16 mi
3:00 PM61 °FOvercast.3 mph87%29.97 "Hg8 mi
2:00 PM60 °FOvercast.3 mph87%29.99 "Hg9 mi
1:00 PM59 °FOvercast.2 mph93%29.98 "Hg7 mi
12:00 PM59 °FLight rain. Overcast.2 mph93%29.97 "Hg3 mi
11:00 AM60 °FDrizzle. Low clouds.2 mph93%29.95 "Hg2 mi
10:00 AM60 °FLow clouds.2 mph96%29.95 "Hg1 mi
9:00 AM59 °FLow clouds.2 mph97%29.94 "Hg1 mi
8:00 AM58 °FDrizzle. Low clouds.2 mph99%29.94 "Hg0 mi
7:00 AM58 °FDrizzle. Low clouds.2 mph97%29.94 "Hg1 mi
6:00 AM59 °FFog.2 mph95%29.94 "Hg2 mi
5:00 AM59 °FFog.2 mph96%29.94 "Hg1 mi
4:00 AM60 °FFog.1 mph97%29.94 "Hg2 mi
3:00 AM59 °FFog.1 mph96%29.95 "Hg2 mi
2:00 AM59 °FFog.1 mph97%29.95 "Hg2 mi
1:00 AM59 °FOvercast.1 mph96%29.96 "Hg2 mi
12:00 AM59 °FOvercast.1 mph96%29.96 "Hg2 mi
Weather by CustomWeather, © 2014

See weather overviewHow to use our weather pages